User: anonymous   Login
Location: Unspecified
(0.0000°N, 0.0000°E)
Time: 15:43:43
(UTC+01:00)
Language:

ASC 2 Rocket - Orbit

View from above orbital plane
View from above orbital plane
View from above satellite
View from above satellite

Ground track
Ground track

The orbit data is extracted from the following two-line orbital elements,

1 21228U 91028B   17349.94918825 +.00000287 +00000-0 +67522-4 0  9998
2 21228 023.9934 315.1975 1143259 039.3715 355.4296 12.53345550220372
Epoch (UTC): 15 December 2017 22:46:49
Eccentricity: 0.1143259
inclination: 23.9934°
perigee height: 555 km
apogee height: 2345 km
right ascension of ascending node: 315.1975°
argument of perigee: 39.3715°
revolutions per day: 12.53345550
mean anomaly at epoch: 355.4296°
orbit number at epoch: 22037

The dashed part of the orbit path shows where the satellite is in the earth's shadow,  

DLR